Flag for U.S.A. Weather past 2 weeks in Hartford, Connecticut, U.S.A.

Now
27 °F

Clear.


Feels Like: 20 °F
Forecast: 22 / 35 °F
Wind: 6 mph from North

Location: Hartford-Brainard Airport

Current Time: Dec 20, 2014 at 3:29:20 AM

Latest Report: Dec 20, 2014 at 2:53 AM


Visibility: 10 mi

Pressure: 30.20 "Hg

Humidity: 72%

Dew point: 19 °F

Location of HartfordLocation

Historic Weather in Hartford — Graph

°F

Hartford temperature yesterday

Maximum temperature yesterday: 36 °F (at 12:53 AM)
Minimum temperature yesterday: 29 °F (at 10:53 PM)
Average temperature yesterday: 34 °F

Past Weeks' High & Low Weather Summary

 TemperatureHumidityPressure
High51 °F (Dec 17, 12:53 PM)97% (Dec 5, 11:00 PM)30.75 "Hg (Dec 5, 11:00 PM)
Low18 °F (Dec 8, 6:53 AM)28% (Dec 7, 2:53 PM)29.49 "Hg (Dec 10, 2:53 PM)
Average34 °F74%30.03 "Hg
* Reported Dec 5 1:53 AM — Dec 20 1:53 AM, Hartford, Weather by CustomWeather, © 2014

Note: Actual official high and low records may vary slightly from our data, if they occured in-between our weather recording intervals... More about our weather records

Advertising

Hartford weather history for previous 24 hours

 ConditionsComfort  
Time TempWeatherWind HumidityBarometerVisibility
1:53 AM
Dec 20
28 °FClear.5 mph69%30.20 "Hg10 mi
12:53 AM29 °FClear.7 mph69%30.19 "Hg10 mi
11:53 PM
Dec 19
29 °FPassing clouds.8 mph69%30.17 "Hg10 mi
10:53 PM29 °FClear.8 mph69%30.16 "Hg10 mi
9:53 PM31 °FOvercast.8 mph64%30.14 "Hg10 mi
8:53 PM31 °FOvercast.7 mph64%30.13 "Hg10 mi
7:53 PM32 °FOvercast.7 mph61%30.13 "Hg10 mi
6:53 PM32 °FOvercast.9 mph61%30.11 "Hg10 mi
5:53 PM32 °FOvercast.10 mph61%30.08 "Hg10 mi
4:53 PM33 °FOvercast.8 mph58%30.06 "Hg10 mi
3:53 PM34 °FOvercast.9 mph56%30.05 "Hg10 mi
2:53 PM35 °FOvercast.10 mph54%30.02 "Hg10 mi
1:53 PM36 °FOvercast.9 mph52%30.00 "Hg10 mi
12:53 PM36 °FOvercast.8 mph54%29.99 "Hg10 mi
11:53 AM36 °FMostly cloudy.12 mph54%29.99 "Hg10 mi
10:53 AM35 °FOvercast.12 mph59%30.01 "Hg10 mi
9:53 AM35 °FMore clouds than sun.9 mph56%30.01 "Hg10 mi
8:53 AM35 °FOvercast.8 mph56%30.00 "Hg10 mi
7:53 AM34 °FOvercast.10 mph56%29.98 "Hg10 mi
6:53 AM34 °FOvercast.9 mph56%29.97 "Hg10 mi
5:53 AM35 °FOvercast.N/A56%29.96 "Hg10 mi
4:53 AM35 °FOvercast.10 mph54%29.94 "Hg10 mi
3:53 AM36 °FOvercast.8 mph59%29.94 "Hg10 mi
Weather by CustomWeather, © 2014

See weather overviewHow to use our weather pages